Location: Chakepay
(13.3931°S, 72.1925°W)
Time: 03:49:41
(UTC+00:00)

DMSP B5D2-2 - Pass Details

Date: 15 November 2019
Orbit: 789 x 807 km, 98.4° (Epoch: 11 December)

Event Time Altitude Azimuth Distance (km) Brightness Sun altitude
Exits shadow 00:31:47 53° 71° (ENE) 973 4.1 -22.6°
Maximum altitude 00:32:29 58° 103° (ESE) 926 4.1 -22.7°
Drops below altitude 10° 00:37:37 10° 181° (S) 2,375 6.9 -23.8°
Sets 00:40:00 0° 185° (S) 3,312 7.7 -24.3°
